Regional Weather Roundup
Issued by NWS Cleveland, OH

Home | Current Version | Previous Version | Graphics & Text | Print | Product List | Glossary On
Versions: 1 2 3 4 5 6 7 8 9 10 11 12 13 14 15 16 17 18 19 20 21 22 23 24 25 26 27 28 29 30 31 32 33 34 35 36 37 38 39 40 41 42 43 44 45 46 47 48 49 50
599
ASUS41 KCLE 110000
RWRCLE
OHIO REGIONAL WEATHER ROUNDUP
NATIONAL WEATHER SERVICE WILMINGTON, OH
700 PM EST SAT DEC 10 2016

NOTE: "FAIR" INDICATES FEW OR NO CLOUDS BELOW 12,000 FEET WITH NO
SIGNIFICANT WEATHER AND/OR OBSTRUCTIONS TO VISIBILITY.

OHZ001>008-015>018-024>027-034-035-043-044-110100-
   NORTHWEST OHIO

CITY           SKY/WX    TMP DP  RH WIND       PRES   REMARKS
DEFIANCE       CLOUDY    26  15  63 SW3       30.44F
FINDLAY        CLOUDY    26  14  60 SW6       30.44S WCI  19
TOLEDO EXPRESS FAIR      25  15  66 SW9       30.43F WCI  15
TOLEDO EXEC    FAIR      26  17  68 SW10      30.45S WCI  16
LIMA           CLOUDY    25  16  68 S3        30.43S
$$

OHZ009>014-019>023-028>033-038-089-110100-
   NORTHEAST OHIO

CITY           SKY/WX    TMP DP  RH WIND       PRES   REMARKS
CLE-HOPKINS    CLOUDY    26  14  60 SW9       30.48R WCI  17
CLE-LAKEFRONT  CLOUDY    26  15  63 SW15      30.46R WCI  14
CUY CO. ARPT   CLOUDY    25  16  68 SW13      30.45R WCI  13
LORAIN-ELYRIA  MOCLDY    24  14  65 SW10      30.45S WCI  14
ASHTABULA      CLOUDY    22  14  71 SW13      30.42F WCI  10
AKRON-CANTON   CLOUDY    25  14  63 SW8       30.44S WCI  16
WOOSTER        NOT AVBL
MANSFIELD      CLOUDY    22  16  78 S6        30.43R WCI  14
YOUNGSTOWN     FLURRIES  24  15  68 SW9       30.43R WCI  14
$$

OHZ042-051>053-060>062-070>072-077>081-110100-
  SOUTHWEST OHIO

CITY           SKY/WX    TMP DP  RH WIND       PRES   REMARKS
CINC-COVINGTON CLOUDY    28  18  66 SE5       30.44F WCI  23
CINC-LUNKEN    CLOUDY    29  18  63 SE3       30.49F
HAMILTON       CLOUDY    29  18  63 CALM      30.47F
DAYTON         NOT AVBL
WRIGHT-PAT AFB FAIR      27  16  64 SE6       30.45F WCI  20
DAYTON GENERAL CLOUDY    26  17  68 SE3       30.44F
WILMINGTON     CLOUDY    25  18  74 S3        30.45F
$$

OHZ036-037-039>041-045>050-054>059-063>069-073>076-082>088-110100-
  CENTRAL AND SOUTHEAST OHIO

CITY           SKY/WX    TMP DP  RH WIND       PRES   REMARKS
COLUMBUS       CLOUDY    26  16  65 SW3       30.47S
OSU AIRPORT    CLOUDY    26  15  63 SW3       30.46S
BOLTON FIELD   CLOUDY    25  16  68 CALM      30.46F
RICKENBACK AFB NOT AVBL
NEWARK         CLOUDY    24  16  71 CALM      30.46F
MARION         CLOUDY    25  16  68 SW6       30.45S WCI  18
LANCASTER      CLOUDY    26  19  74 CALM      30.47F
ZANESVILLE     MOCLDY    26  16  65 CALM      30.47F
NEW PHILLY     CLOUDY    25  17  72 CALM      30.48S
$$




USA.gov is the U.S. government's official web portal to all federal, state and local government web resources and services.